• In Uzbekistan
  • List of Countries
  • For 7 days
  • Water Temperature
  • Satellite Maps
  • Weather Map
  • Weather Widgets
  • user-avatar
    Login

    Hourly Weather Kaprun

    Today, 23 March, Thursday

    Time Temperature Precipitation Wind Pressure Humidity
    00:00 -3°C° 0 mm 2 mps 592 mmHg 96%
    01:00 -3°C° 0 mm 2 mps 592 mmHg 96%
    02:00 -3°C° 0 mm 2 mps 592 mmHg 96%
    03:00 -3°C° 0 mm 2 mps 592 mmHg 96%
    04:00 -4°C° 0 mm 2 mps 592 mmHg 96%
    05:00 -3°C° 0 mm 2 mps 592 mmHg 96%
    06:00 -3°C° 0 mm 2 mps 593 mmHg 96%
    07:00 -3°C° 0 mm 2 mps 593 mmHg 95%
    08:00 -2°C° 0 mm 2 mps 593 mmHg 92%
    09:00 +1°C° 0 mm 2 mps 594 mmHg 90%
    10:00 +2°C° 0 mm 2 mps 595 mmHg 87%
    11:00 +3°C° 0 mm 2 mps 595 mmHg 85%
    12:00 +3°C° 0 mm 2 mps 595 mmHg 83%
    13:00 +4°C° 0 mm 2 mps 596 mmHg 81%
    14:00 +4°C° 0 mm 2 mps 596 mmHg 81%
    15:00 +4°C° 0 mm 2 mps 596 mmHg 82%
    16:00 +4°C° 0 mm 2 mps 596 mmHg 82%
    17:00 +2°C° 0 mm 2 mps 595 mmHg 86%
    18:00 -1°C° 0 mm 2 mps 595 mmHg 91%
    19:00 -2°C° 0 mm 2 mps 595 mmHg 95%
    20:00 -2°C° 0 mm 2 mps 595 mmHg 94%
    21:00 -2°C° 0 mm 2 mps 595 mmHg 94%
    22:00 -3°C° 0 mm 2 mps 596 mmHg 93%
    23:00 -3°C° 0 mm 2 mps 596 mmHg 92%

    Tomorrow, 24 March, Friday

    Time Temperature Precipitation Wind Pressure Humidity
    00:00 -3°C° 0 mm 2 mps 596 mmHg 92%
    01:00 -3°C° 0 mm 2 mps 596 mmHg 92%
    02:00 -3°C° 0 mm 2 mps 596 mmHg 91%
    03:00 -4°C° 0 mm 2 mps 596 mmHg 90%
    04:00 -4°C° 0 mm 2 mps 596 mmHg 89%
    05:00 -4°C° 0 mm 2 mps 596 mmHg 88%
    06:00 -3°C° 0 mm 2 mps 597 mmHg 87%
    07:00 -3°C° 0 mm 2 mps 597 mmHg 85%
    08:00 +1°C° 0 mm 1 mps 598 mmHg 82%
    09:00 +3°C° 0 mm 1 mps 599 mmHg 79%
    10:00 +5°C° 0 mm 1 mps 600 mmHg 76%
    11:00 +6°C° 0 mm 1 mps 601 mmHg 74%
    12:00 +6°C° 0 mm 1 mps 601 mmHg 72%
    13:00 +7°C° 0 mm 1 mps 601 mmHg 69%
    14:00 +7°C° 0 mm 1 mps 601 mmHg 72%
    15:00 +7°C° 0 mm 1 mps 601 mmHg 75%
    16:00 +6°C° 0 mm 2 mps 601 mmHg 77%
    17:00 +4°C° 0 mm 1 mps 600 mmHg 84%
    18:00 +2°C° 0 mm 1 mps 599 mmHg 90%
    19:00 -1°C° 0 mm 1 mps 598 mmHg 96%
    20:00 -1°C° 0 mm 1 mps 598 mmHg 96%
    21:00 -1°C° 0 mm 1 mps 598 mmHg 96%
    22:00 -1°C° 0 mm 1 mps 599 mmHg 96%
    23:00 -1°C° 0 mm 1 mps 599 mmHg 95%

    Day after tomorrow, 25 March, Saturday

    Time Temperature Precipitation Wind Pressure Humidity
    00:00 -1°C° 0 mm 1 mps 599 mmHg 95%
    01:00 -1°C° 0 mm 1 mps 599 mmHg 94%
    02:00 -2°C° 0 mm 1 mps 599 mmHg 94%
    03:00 -2°C° 0 mm 1 mps 598 mmHg 95%
    04:00 -2°C° 0 mm 1 mps 598 mmHg 95%
    05:00 -2°C° 0 mm 1 mps 599 mmHg 94%
    06:00 -1°C° 0 mm 1 mps 599 mmHg 94%
    07:00 0°C° 0 mm 1 mps 599 mmHg 93%
    08:00 +2°C° 0 mm 1 mps 600 mmHg 88%
    09:00 +4°C° 0 mm 1 mps 600 mmHg 83%
    10:00 +5°C° 0 mm 1 mps 601 mmHg 78%
    11:00 +5°C° 0 mm 2 mps 601 mmHg 77%
    12:00 +5°C° 0 mm 2 mps 601 mmHg 77%
    13:00 +6°C° 0 mm 2 mps 601 mmHg 76%
    14:00 +6°C° 0 mm 2 mps 600 mmHg 78%
    15:00 +5°C° 0 mm 2 mps 600 mmHg 80%
    16:00 +5°C° 0 mm 2 mps 599 mmHg 82%
    17:00 +3°C° 0 mm 2 mps 598 mmHg 87%
    18:00 +2°C° 0 mm 2 mps 598 mmHg 92%
    19:00 +1°C° 0 mm 1 mps 597 mmHg 97%
    20:00 +1°C° 0 mm 1 mps 597 mmHg 97%
    21:00 +1°C° 0 mm 1 mps 597 mmHg 97%
    22:00 0°C° 0 mm 1 mps 597 mmHg 96%
    23:00 0°C° 0 mm 1 mps 596 mmHg 96%

    26 March, Sunday

    Time Temperature Precipitation Wind Pressure Humidity
    00:00 -1°C° 0 mm 1 mps 596 mmHg 96%
    01:00 -1°C° 0 mm 1 mps 595 mmHg 96%
    02:00 -2°C° 0 mm 1 mps 595 mmHg 96%
    03:00 -2°C° 0 mm 1 mps 594 mmHg 96%
    04:00 -3°C° 0 mm 1 mps 593 mmHg 96%
    05:00 -2°C° 0 mm 1 mps 594 mmHg 95%
    06:00 -2°C° 0 mm 1 mps 594 mmHg 94%
    07:00 -1°C° 0 mm 1 mps 594 mmHg 92%
    08:00 0°C° 0 mm 1 mps 594 mmHg 88%
    09:00 +2°C° 0 mm 1 mps 595 mmHg 83%
    10:00 +3°C° 0 mm 1 mps 595 mmHg 79%
    11:00 +2°C° 0.4 mm 2 mps 595 mmHg 81%
    12:00 +2°C° 0.4 mm 2 mps 594 mmHg 84%
    13:00 +1°C° 0.4 mm 2 mps 594 mmHg 86%
    14:00 +1°C° 0.4 mm 2 mps 594 mmHg 87%
    15:00 +1°C° 0.4 mm 2 mps 593 mmHg 88%
    16:00 -1°C° 0.4 mm 3 mps 593 mmHg 89%
    17:00 -2°C° 0.5 mm 2 mps 593 mmHg 91%
    18:00 -3°C° 0.5 mm 2 mps 593 mmHg 94%
    19:00 -4°C° 0.5 mm 2 mps 592 mmHg 97%
    20:00 -4°C° 0.6 mm 2 mps 593 mmHg 97%
    21:00 -4°C° 0.6 mm 2 mps 593 mmHg 97%
    22:00 -4°C° 0.6 mm 2 mps 593 mmHg 97%
    23:00 -5°C° 0.5 mm 2 mps 593 mmHg 97%

    27 March, Monday

    Time Temperature Precipitation Wind Pressure Humidity
    00:00 -5°C° 0.5 mm 2 mps 593 mmHg 97%
    01:00 -5°C° 0.5 mm 2 mps 593 mmHg 97%
    02:00 -6°C° 0.5 mm 2 mps 593 mmHg 97%
    03:00 -6°C° 0.5 mm 2 mps 593 mmHg 97%
    04:00 -7°C° 0.5 mm 2 mps 593 mmHg 97%
    05:00 -7°C° 0.5 mm 2 mps 593 mmHg 97%
    06:00 -7°C° 0.5 mm 2 mps 593 mmHg 96%
    07:00 -7°C° 0.5 mm 2 mps 593 mmHg 96%
    08:00 -6°C° 0.1 mm 2 mps 594 mmHg 92%
    09:00 -5°C° 0.1 mm 2 mps 595 mmHg 89%
    10:00 -4°C° 0.1 mm 2 mps 595 mmHg 85%
    11:00 -4°C° 0 mm 2 mps 595 mmHg 83%
    12:00 -3°C° 0 mm 2 mps 596 mmHg 80%
    13:00 -2°C° 0 mm 2 mps 596 mmHg 78%
    14:00 -2°C° 0 mm 2 mps 596 mmHg 78%
    15:00 -2°C° 0 mm 2 mps 595 mmHg 79%
    16:00 -2°C° 0 mm 2 mps 595 mmHg 79%
    17:00 -4°C° 0 mm 2 mps 595 mmHg 84%
    18:00 -6°C° 0 mm 2 mps 594 mmHg 88%
    19:00 -8°C° 0 mm 2 mps 593 mmHg 93%
    20:00 -8°C° 0 mm 2 mps 593 mmHg 93%
    21:00 -9°C° 0 mm 2 mps 593 mmHg 93%
    22:00 -9°C° 0 mm 2 mps 593 mmHg 93%
    23:00 -9°C° 0 mm 2 mps 593 mmHg 92%

    28 March, Tuesday

    Time Temperature Precipitation Wind Pressure Humidity
    00:00 -9°C° 0 mm 2 mps 593 mmHg 92%
    01:00 -9°C° 0 mm 2 mps 593 mmHg 92%
    02:00 -9°C° 0 mm 2 mps 593 mmHg 91%
    03:00 -9°C° 0 mm 2 mps 593 mmHg 91%
    04:00 -9°C° 0 mm 2 mps 593 mmHg 91%
    05:00 -9°C° 0 mm 2 mps 593 mmHg 90%
    06:00 -7°C° 0 mm 1 mps 593 mmHg 89%
    07:00 -6°C° 0 mm 1 mps 594 mmHg 87%
    08:00 -4°C° 0 mm 1 mps 594 mmHg 83%
    09:00 -2°C° 0 mm 1 mps 595 mmHg 78%
    10:00 0°C° 0 mm 1 mps 596 mmHg 74%
    11:00 0°C° 0.1 mm 1 mps 596 mmHg 74%
    12:00 +1°C° 0.1 mm 1 mps 596 mmHg 73%
    13:00 +1°C° 0.1 mm 2 mps 596 mmHg 73%
    14:00 +1°C° 0.1 mm 2 mps 596 mmHg 74%
    15:00 +1°C° 0.1 mm 2 mps 596 mmHg 76%
    16:00 -1°C° 0.1 mm 2 mps 596 mmHg 77%
    17:00 0°C° 0.1 mm 1 mps 595 mmHg 83%
    18:00 -2°C° 0.1 mm 1 mps 594 mmHg 89%
    19:00 -4°C° 0.1 mm 1 mps 594 mmHg 95%
    20:00 -6°C° 0 mm 1 mps 594 mmHg 95%
    21:00 -6°C° 0 mm 1 mps 594 mmHg 95%
    22:00 -7°C° 0 mm 1 mps 594 mmHg 94%
    23:00 -7°C° 0 mm 1 mps 594 mmHg 94%
    Show more